DAL1633 TJSJ-KATL

Flight info

Callsign DAL1633
Flight time N/A
Altitude 36000
Route ACONY3 PALDE DCT DONQU Y185 MANLE Q89 SHRKS DCT LAIRI DCT LARZZ JJEDI4
Aircraft A319/M-V/N

Departure

Time 2026-05-07 03:26
Airport Luis Munoz Marin International Airport (TJSJ)

Arrival

Time N/A
Airport Hartsfield Jackson Atlanta International Airport (KATL)
Time Latitude Longitude Altitude Speed Heading
2026-05-07 03:04 18.43566 -66.00415 19 ft 0 kts
2026-05-07 03:20 18.43543 -66.00418 21 ft 4 kts
2026-05-07 03:20 18.43517 -66.00420 22 ft 4 kts 355°
2026-05-07 03:20 18.43491 -66.00414 20 ft 4 kts 329°
2026-05-07 03:20 18.43476 -66.00397 20 ft 3 kts 273°
2026-05-07 03:21 18.43475 -66.00393 19 ft 0 kts 269°
2026-05-07 03:23 18.43475 -66.00396 19 ft 2 kts 269°
2026-05-07 03:23 18.43475 -66.00516 19 ft 27 kts 270°
2026-05-07 03:24 18.43477 -66.00712 19 ft 27 kts 269°
2026-05-07 03:24 18.43467 -66.00903 19 ft 26 kts 267°
2026-05-07 03:24 18.43466 -66.01087 20 ft 25 kts 270°
2026-05-07 03:24 18.43467 -66.01265 20 ft 24 kts 270°
2026-05-07 03:25 18.43561 -66.01357 20 ft 22 kts 359°
2026-05-07 03:25 18.43710 -66.01357 19 ft 21 kts 359°
2026-05-07 03:25 18.43821 -66.01446 20 ft 20 kts 328°
2026-05-07 03:25 18.43918 -66.01381 17 ft 20 kts 67°
2026-05-07 03:26 18.44036 -66.01090 18 ft 75 kts 67°
2026-05-07 03:26 18.44317 -66.00395 22 ft 130 kts 67°
2026-05-07 03:26 18.44732 -65.99371 102 ft 164 kts 68°
2026-05-07 03:26 18.45174 -65.98303 736 ft 156 kts 62°
2026-05-07 03:27 18.46045 -65.97720 1233 ft 157 kts
2026-05-07 03:27 18.47063 -65.98211 1490 ft 174 kts 314°
2026-05-07 03:27 18.47938 -65.99224 1558 ft 206 kts 313°
2026-05-07 03:27 18.48869 -66.00503 1679 ft 232 kts 309°
2026-05-07 03:28 18.50003 -66.01835 1943 ft 257 kts 314°
2026-05-07 03:28 18.51303 -66.03201 2478 ft 269 kts 316°
2026-05-07 03:28 18.52665 -66.04594 3229 ft 274 kts 317°
2026-05-07 03:28 18.54034 -66.06004 4045 ft 275 kts 316°
2026-05-07 03:29 18.55397 -66.07430 4843 ft 277 kts 316°
2026-05-07 03:29 18.56764 -66.08876 5616 ft 280 kts 315°
2026-05-07 03:29 18.58140 -66.10344 6339 ft 284 kts 315°
2026-05-07 03:29 18.59531 -66.11838 7025 ft 287 kts 315°
2026-05-07 03:30 18.60932 -66.13350 7733 ft 289 kts 314°
2026-05-07 03:30 18.62340 -66.14869 8461 ft 291 kts 315°
2026-05-07 03:30 18.63757 -66.16399 9177 ft 292 kts 314°
2026-05-07 03:30 18.65184 -66.17939 9881 ft 295 kts 314°
2026-05-07 03:31 18.66634 -66.19506 10287 ft 308 kts 314°
2026-05-07 03:31 18.68183 -66.21178 10414 ft 329 kts 314°
2026-05-07 03:31 18.69817 -66.22940 10779 ft 340 kts 314°
2026-05-07 03:31 18.71478 -66.24733 11308 ft 344 kts 314°
2026-05-07 03:32 18.73161 -66.26550 11877 ft 348 kts 314°
2026-05-07 03:32 18.74858 -66.28384 12448 ft 351 kts 314°
2026-05-07 03:32 18.76571 -66.30240 13004 ft 354 kts 314°
2026-05-07 03:32 18.78298 -66.32112 13564 ft 357 kts 314°
2026-05-07 03:33 18.80040 -66.33998 14086 ft 361 kts 314°
2026-05-07 03:33 18.81795 -66.35896 14620 ft 361 kts 314°
2026-05-07 03:33 18.83551 -66.37792 15198 ft 362 kts 314°
2026-05-07 03:33 18.85316 -66.39695 15731 ft 363 kts 314°
2026-05-07 03:34 18.87080 -66.41601 16291 ft 364 kts 314°
2026-05-07 03:34 18.88853 -66.43525 16790 ft 366 kts 314°
2026-05-07 03:34 18.90628 -66.45453 17385 ft 366 kts 314°
2026-05-07 03:34 18.92407 -66.47384 17923 ft 368 kts 314°
2026-05-07 03:35 18.94211 -66.49305 18457 ft 369 kts 315°
2026-05-07 03:35 18.96065 -66.51203 18893 ft 372 kts 316°
2026-05-07 03:35 18.97922 -66.53068 19316 ft 375 kts 316°
2026-05-07 03:35 18.99823 -66.54970 19731 ft 378 kts 316°
2026-05-07 03:36 19.01741 -66.56891 20170 ft 381 kts 316°
2026-05-07 03:36 19.03662 -66.58823 20598 ft 383 kts 316°
2026-05-07 03:36 19.05594 -66.60774 21067 ft 385 kts 316°
2026-05-07 03:36 19.07531 -66.62739 21487 ft 388 kts 316°
2026-05-07 03:37 19.09517 -66.64683 21887 ft 391 kts 318°
2026-05-07 03:37 19.11575 -66.66581 22283 ft 394 kts 319°
2026-05-07 03:37 19.13679 -66.68455 22684 ft 397 kts 320°
2026-05-07 03:37 19.15809 -66.70329 23085 ft 399 kts 319°
2026-05-07 03:38 19.17943 -66.72211 23521 ft 401 kts 319°
2026-05-07 03:38 19.20088 -66.74117 23854 ft 404 kts 319°
2026-05-07 03:38 19.22236 -66.76043 24151 ft 407 kts 319°
2026-05-07 03:38 19.24391 -66.77989 24477 ft 408 kts 319°
2026-05-07 03:39 19.26548 -66.79945 24816 ft 409 kts 319°
2026-05-07 03:39 19.28713 -66.81912 25143 ft 411 kts 319°
2026-05-07 03:39 19.30883 -66.83888 25465 ft 412 kts 319°
2026-05-07 03:39 19.33061 -66.85874 25789 ft 414 kts 319°
2026-05-07 03:40 19.35234 -66.87849 26108 ft 415 kts 319°
2026-05-07 03:40 19.37431 -66.89841 26409 ft 416 kts 319°
2026-05-07 03:40 19.39316 -66.91549 26679 ft 417 kts 319°
2026-05-07 03:40 19.40955 -66.93035 26928 ft 418 kts 320°
2026-05-07 03:41 19.42775 -66.94750 27162 ft 418 kts 318°
2026-05-07 03:41 19.44966 -66.96789 27448 ft 420 kts 319°
2026-05-07 03:41 19.47187 -66.98802 27744 ft 421 kts 320°
2026-05-07 03:41 19.49433 -67.00806 28041 ft 423 kts 320°
2026-05-07 03:42 19.51689 -67.02818 28341 ft 424 kts 320°
2026-05-07 03:42 19.53944 -67.04841 28637 ft 425 kts 320°
2026-05-07 03:42 19.56198 -67.06877 28920 ft 427 kts 320°
2026-05-07 03:42 19.58453 -67.08927 29198 ft 428 kts 320°
2026-05-07 03:43 19.60717 -67.10993 29479 ft 429 kts 320°
2026-05-07 03:43 19.62985 -67.13063 29735 ft 431 kts 320°
2026-05-07 03:43 19.65255 -67.15136 29989 ft 432 kts 320°
2026-05-07 03:43 19.67539 -67.17225 30236 ft 434 kts 320°
2026-05-07 03:44 19.69827 -67.19321 30439 ft 435 kts 320°
2026-05-07 03:44 19.72126 -67.21426 30641 ft 437 kts 320°
2026-05-07 03:44 19.74429 -67.23529 30871 ft 437 kts 320°
2026-05-07 03:44 19.76732 -67.25629 31138 ft 437 kts 320°
2026-05-07 03:45 19.79035 -67.27732 31408 ft 436 kts 320°
2026-05-07 03:45 19.81333 -67.29830 31677 ft 436 kts 320°
2026-05-07 03:45 19.83632 -67.31929 31949 ft 435 kts 320°
2026-05-07 03:45 19.85924 -67.34028 32231 ft 435 kts 320°
2026-05-07 03:46 19.88210 -67.36127 32510 ft 435 kts 320°
2026-05-07 03:46 19.90501 -67.38230 32788 ft 434 kts 320°
2026-05-07 03:46 19.92791 -67.40324 33065 ft 434 kts 320°
2026-05-07 03:46 19.95079 -67.42413 33340 ft 434 kts 320°
2026-05-07 03:47 19.97364 -67.44500 33615 ft 433 kts 320°
2026-05-07 03:47 19.99648 -67.46590 33893 ft 433 kts 320°
2026-05-07 03:47 20.01927 -67.48683 34163 ft 432 kts 320°
2026-05-07 03:47 20.04198 -67.50775 34398 ft 432 kts 320°
2026-05-07 03:48 20.06463 -67.52863 34655 ft 430 kts 320°
2026-05-07 03:48 20.08721 -67.54945 34910 ft 429 kts 320°
2026-05-07 03:48 20.10975 -67.57014 35185 ft 427 kts 320°
2026-05-07 03:48 20.13219 -67.59071 35439 ft 425 kts 320°
2026-05-07 03:49 20.15449 -67.61119 35691 ft 423 kts 321°
2026-05-07 03:49 20.17673 -67.63168 35931 ft 421 kts 321°
2026-05-07 03:49 20.19887 -67.65207 36087 ft 421 kts 321°
2026-05-07 03:50 20.24284 -67.69257 36128 ft 416 kts 321°
2026-05-07 03:50 20.28662 -67.73291 36127 ft 416 kts 321°
2026-05-07 03:51 20.33033 -67.77316 36124 ft 415 kts 321°
2026-05-07 03:51 20.37393 -67.81333 36125 ft 414 kts 321°
2026-05-07 03:52 20.41748 -67.85358 36127 ft 414 kts 321°
2026-05-07 03:52 20.46100 -67.89384 36131 ft 414 kts 321°
2026-05-07 03:53 20.50456 -67.93414 36130 ft 414 kts 321°
2026-05-07 03:53 20.54072 -67.96767 36132 ft 415 kts 321°
2026-05-07 03:54 20.58432 -68.00797 36134 ft 414 kts 321°
2026-05-07 03:54 20.62788 -68.04828 36135 ft 414 kts 321°
2026-05-07 03:55 20.67134 -68.08874 36148 ft 414 kts 321°